EW5586 Weather Reports


Display with metric or nautical units.
time (UTC)temp
F
wind
direction
speed
MPH
gust
MPH
rain 1hr
in
rain 24hr
in
rain mn
in
humidity
%
barometer
mb
20260904001333 73 197 0.0 6.0 0.00 0.00 0.00 83 1011.0
20260904000832 73 236 0.0 6.0 0.00 0.00 0.00 83 1010.9
20260904000332 73 218 0.0 4.0 0.00 0.00 0.00 83 1010.9
20260903235830 73 219 1.0 4.0 0.00 0.00 0.00 82 1010.9
20260903235330 73 232 1.0 4.0 0.00 0.00 0.00 82 1010.7
20260903234329 74 213 2.0 6.0 0.00 0.00 0.00 81 1010.7
20260903233828 74 212 1.0 6.0 0.00 0.00 0.00 82 1010.7
20260903233328 74 223 0.0 4.0 0.00 0.00 0.00 81 1010.5
20260903232828 74 213 0.0 1.0 0.00 0.00 0.00 81 1010.5
20260903232328 74 217 0.0 1.0 0.00 0.00 0.00 81 1010.5
20260903231828 75 196 0.0 1.0 0.00 0.00 0.00 80 1010.4
20260903231328 75 225 0.0 1.0 0.00 0.00 0.00 80 1010.4
20260903230828 75 219 0.0 4.0 0.00 0.00 0.00 79 1010.5
20260903225824 75 212 0.0 3.0 0.00 0.00 0.00 79 1010.5
20260903225324 75 212 1.0 5.0 0.00 0.00 0.00 79 1010.5
20260903224824 75 202 2.0 6.0 0.00 0.00 0.00 79 1010.5
20260903224324 75 187 1.0 6.0 0.00 0.00 0.00 78 1010.6
20260903223824 76 202 1.0 6.0 0.00 0.00 0.00 78 1010.7
20260903223324 76 193 1.0 6.0 0.00 0.00 0.00 78 1010.6
20260903222824 76 209 1.0 6.0 0.00 0.00 0.00 77 1010.6
20260903222324 76 198 2.0 6.0 0.00 0.00 0.00 77 1010.6
20260903221820 76 184 3.0 6.0 0.00 0.00 0.00 77 1010.7
20260903221321 76 211 3.0 6.0 0.00 0.00 0.00 77 1010.6
20260903220820 76 210 2.0 7.0 0.00 0.00 0.00 77 1010.7
20260903220320 76 205 2.0 7.0 0.00 0.00 0.00 76 1010.6
20260903215820 76 202 3.0 7.0 0.00 0.00 0.00 76 1010.7
20260903215320 76 182 3.0 7.0 0.00 0.00 0.00 76 1010.7
20260903214820 77 211 2.0 7.0 0.00 0.00 0.00 77 1010.6
20260903214320 77 161 2.0 5.0 0.00 0.00 0.00 76 1010.7
20260903213821 77 236 3.0 7.0 0.00 0.00 0.00 75 1010.7
20260903213318 77 200 4.0 9.0 0.00 0.00 0.00 74 1010.7
20260903211820 77 186 4.0 8.0 0.00 0.00 0.00 75 1010.8
20260903211319 77 181 4.0 8.0 0.00 0.00 0.00 76 1010.8
20260903210819 78 178 3.0 7.0 0.00 0.00 0.00 77 1010.8
20260903210318 78 190 4.0 8.0 0.00 0.00 0.00 76 1010.9
20260903205819 78 169 4.0 8.0 0.00 0.00 0.00 75 1010.9
20260903205320 78 183 4.0 9.0 0.00 0.00 0.00 75 1011.0
20260903204817 78 185 4.0 9.0 0.00 0.00 0.00 75 1011.0
20260903203317 78 0 1.0 8.0 0.00 0.00 0.00 74 1011.1
20260903202314 78 177 3.0 8.0 0.00 0.00 0.00 74 1011.1
20260903201812 78 202 3.0 9.0 0.00 0.00 0.00 72 1011.1
20260903201311 78 182 4.0 9.0 0.00 0.00 0.00 71 1011.2
20260903200811 79 220 4.0 9.0 0.00 0.00 0.00 71 1011.3
20260903200310 80 208 1.0 9.0 0.00 0.00 0.00 65 1011.2
20260903195811 80 187 0.0 2.0 0.00 0.00 0.00 64 1011.2
20260903195306 80 325 0.0 0.0 0.00 0.00 0.00 64 1011.3
20260903193301 80 63 1.0 8.0 0.00 0.00 0.00 59 1011.2
20260903192800 81 253 2.0 8.0 0.00 0.00 0.00 57 1011.1
20260903192259 82 117 2.0 7.0 0.00 0.00 0.00 57 1011.0
20260903191753 82 162 2.0 8.0 0.00 0.00 0.00 56 1011.1
20260903191247 83 355 3.0 14.0 0.00 0.00 0.00 58 1011.1
20260903190743 82 51 2.0 14.0 0.00 0.00 0.00 57 1011.1
20260903190245 82 192 1.0 7.0 0.00 0.00 0.00 57 1011.1
20260903185744 82 100 1.0 7.0 0.00 0.00 0.00 57 1011.1
20260903185242 82 60 2.0 9.0 0.00 0.00 0.00 58 1011.0
20260903184740 82 236 1.0 9.0 0.00 0.00 0.00 56 1011.2
20260903184240 82 18 2.0 10.0 0.00 0.00 0.00 58 1011.2
20260903183739 82 0 3.0 10.0 0.00 0.00 0.00 57 1011.2
20260903182740 82 340 3.0 8.0 0.00 0.00 0.00 59 1011.3
20260903182237 81 336 3.0 12.0 0.00 0.00 0.00 56 1011.2
20260903181738 81 146 4.0 12.0 0.00 0.00 0.00 59 1011.2
20260903181238 82 348 3.0 10.0 0.00 0.00 0.00 61 1011.1
20260903180238 82 252 2.0 8.0 0.00 0.00 0.00 58 1011.1
20260903175736 82 134 2.0 9.0 0.00 0.00 0.00 62 1011.1
20260903175234 82 329 3.0 9.0 0.00 0.00 0.00 60 1011.0
20260903173734 82 146 2.0 8.0 0.00 0.00 0.00 58 1010.9
20260903173227 82 0 1.0 6.0 0.00 0.00 0.00 62 1010.9
20260903172721 82 187 2.0 9.0 0.00 0.00 0.00 59 1010.9
20260903172216 81 140 1.0 9.0 0.00 0.00 0.00 61 1010.9
20260903171709 81 299 1.0 7.0 0.00 0.00 0.00 66 1010.9
20260903170152 81 192 2.0 10.0 0.00 0.00 0.00 63 1011.0
20260903165645 81 337 2.0 10.0 0.00 0.00 0.00 62 1011.1
20260903165140 81 0 3.0 11.0 0.00 0.00 0.00 63 1011.1
20260903164127 80 304 2.0 11.0 0.00 0.00 0.00 66 1011.1
20260903163621 80 186 1.0 8.0 0.00 0.00 0.00 68 1011.1
20260903163117 80 5 1.0 8.0 0.00 0.00 0.00 69 1011.2
20260903162609 80 355 2.0 8.0 0.00 0.00 0.00 67 1011.3
20260903162103 80 184 2.0 8.0 0.00 0.00 0.00 69 1011.2
20260903161557 80 340 1.0 6.0 0.00 0.00 0.00 67 1011.2
20260903161051 80 324 1.0 5.0 0.00 0.00 0.00 72 1011.3
20260903160545 79 5 1.0 8.0 0.00 0.00 0.00 73 1011.3
20260903160040 78 220 2.0 9.0 0.00 0.00 0.00 72 1011.3
20260903155533 78 338 3.0 11.0 0.00 0.00 0.00 70 1011.5
20260903155027 78 216 2.0 11.0 0.00 0.00 0.00 69 1011.5
20260903154521 78 300 1.0 7.0 0.00 0.00 0.00 76 1011.5
20260903153509 76 126 3.0 8.0 0.00 0.00 0.00 82 1011.6
20260903153004 75 338 4.0 8.0 0.00 0.00 0.00 84 1011.6
20260903151953 74 184 6.0 12.0 0.00 0.00 0.00 88 1011.6
20260903151445 74 190 6.0 12.0 0.00 0.00 0.00 88 1011.6
20260903150939 74 0 7.0 12.0 0.00 0.00 0.00 88 1011.6
20260903150436 74 158 7.0 12.0 0.00 0.00 0.00 88 1011.6
20260903145927 74 186 7.0 11.0 0.00 0.00 0.00 88 1011.6
20260903145421 74 180 6.0 10.0 0.00 0.00 0.00 88 1011.7
20260903144915 74 161 6.0 11.0 0.00 0.00 0.00 89 1011.8
20260903144409 74 144 6.0 11.0 0.00 0.00 0.00 88 1011.8
20260903143903 74 164 6.0 10.0 0.00 0.00 0.00 88 1011.7
20260903143358 73 153 7.0 11.0 0.00 0.00 0.00 88 1011.8
20260903142854 74 169 6.0 11.0 0.00 0.00 0.00 88 1011.7
20260903142353 74 155 4.0 9.0 0.00 0.00 0.00 88 1011.7
20260903141854 74 164 3.0 7.0 0.00 0.00 0.00 87 1011.8
20260903141353 73 166 3.0 7.0 0.00 0.00 0.00 87 1011.7
20260903140852 73 173 3.0 6.0 0.00 0.00 0.00 88 1011.7
20260903140351 73 194 2.0 6.0 0.00 0.00 0.00 89 1011.7
20260903135849 72 157 1.0 4.0 0.00 0.00 0.00 90 1011.8
20260903135349 72 205 0.0 4.0 0.00 0.00 0.00 91 1011.8
20260903134849 71 213 0.0 1.0 0.00 0.00 0.00 91 1011.8
20260903134350 71 355 0.0 1.0 0.00 0.00 0.00 92 1011.8
20260903133847 71 294 0.0 1.0 0.00 0.00 0.00 92 1011.7
20260903133345 71 226 1.0 7.0 0.00 0.00 0.00 93 1011.7
20260903132846 71 221 1.0 7.0 0.00 0.00 0.00 94 1011.8
20260903132346 71 170 1.0 5.0 0.00 0.00 0.00 94 1011.8
20260903131843 71 192 1.0 5.0 0.00 0.00 0.00 94 1011.8
20260903131343 71 216 1.0 5.0 0.00 0.00 0.00 95 1011.7
20260903130844 70 230 0.0 1.0 0.00 0.00 0.00 95 1011.8
20260903130341 70 24 0.0 4.0 0.00 0.00 0.00 95 1011.8
20260903125842 70 191 0.0 4.0 0.00 0.00 0.00 96 1011.8
20260903125337 70 218 0.0 1.0 0.00 0.00 0.00 95 1011.8
20260903124837 70 246 0.0 0.0 0.00 0.00 0.00 96 1011.7
20260903124335 70 236 0.0 0.0 0.00 0.00 0.00 96 1011.7
20260903123835 70 355 0.0 0.0 0.00 0.00 0.00 96 1011.6
20260903122833 70 207 0.0 1.0 0.00 0.00 0.00 96 1011.6
20260903122333 70 229 0.0 5.0 0.00 0.00 0.00 96 1011.6
20260903121832 70 230 0.0 5.0 0.00 0.00 0.00 96 1011.6
20260903121329 70 184 0.0 2.0 0.00 0.00 0.00 96 1011.5
20260903115829 70 210 1.0 6.0 0.00 0.00 0.00 96 1011.6
20260903115329 70 219 1.0 6.0 0.00 0.00 0.00 96 1011.6
20260903114830 69 221 0.0 5.0 0.00 0.00 0.00 96 1011.6
20260903114329 69 215 0.0 5.0 0.00 0.00 0.00 96 1011.6
20260903113325 69 178 0.0 0.0 0.00 0.00 0.00 96 1011.6
20260903112825 69 319 0.0 0.0 0.00 0.00 0.00 96 1011.6
20260903112326 0 0.0 0.0 0.00 0.00 0.00 1011.5
20260903111825 0 0.0 0.0 0.00 0.00 0.00 1011.5
20260903111322 0 0.0 0.0 0.00 0.00 0.00 1011.5
20260903110809 0 0.0 0.0 0.00 0.00 0.00 1011.5
20260903110222 0 0.0 0.0 0.00 0.00 0.00 1011.4
20260903105209 0 0.0 0.0 0.00 0.00 0.00 1011.3
20260903104617 0 0.0 0.0 0.00 0.00 0.00 1011.2
20260903104117 0 0.0 0.0 0.00 0.00 0.00 1011.1
20260903103617 0 0.0 0.0 0.00 0.00 0.00 1011.2
20260903103117 0 0.0 0.0 0.00 0.00 0.00 1011.2
20260903102525 0 0.0 0.0 0.00 0.00 0.00 1011.1
20260903102020 0 0.0 0.0 0.00 0.00 0.00 1011.1
20260903101505 0 0.0 0.0 0.00 0.00 0.00 1011.1
20260903100924 0 0.0 0.0 0.00 0.00 0.00 1011.1
20260903100425 0 0.0 0.0 0.00 0.00 0.00 1011.0
20260903095330 0 0.0 0.0 0.00 0.00 0.00 1011.0
20260903094820 0 0.0 0.0 0.00 0.00 0.00 1011.1
20260903094258 0 0.0 0.0 0.00 0.00 0.00 1011.0
20260903093719 0 0.0 0.0 0.00 0.00 0.00 1011.0
20260903093217 0 0.0 0.0 0.00 0.00 0.00 1010.9
20260903092628 0 0.0 0.0 0.00 0.00 0.00 1010.9
20260903092123 0 0.0 0.0 0.00 0.00 0.00 1010.7
20260903091026 0 0.0 0.0 0.00 0.00 0.00 1010.8
20260903090503 0 0.0 0.0 0.00 0.00 0.00 1010.8
20260903085919 0 0.0 0.0 0.00 0.00 0.00 1010.8
20260903085327 0 0.0 0.0 0.00 0.00 0.00 1010.8
20260903084823 0 0.0 0.0 0.00 0.00 0.00 1010.7
20260903084320 0 0.0 0.0 0.00 0.00 0.00 1010.7
20260903083732 0 0.0 0.0 0.00 0.00 0.00 1010.7
20260903082721 0 0.0 0.0 0.00 0.00 0.00 1010.7
20260903082221 0 0.0 0.0 0.00 0.00 0.00 1010.8
20260903081623 0 0.0 0.0 0.00 0.00 0.00 1010.9
20260903081119 0 0.0 0.0 0.00 0.00 0.00 1010.9
20260903080529 0 0.0 0.0 0.00 0.00 0.00 1010.9
20260903075522 0 0.0 0.0 0.00 0.00 0.00 1010.9
20260903074419 0 0.0 0.0 0.00 0.00 0.00 1011.0
20260903073825 0 0.0 0.0 0.00 0.00 0.00 1010.9
20260903073325 0 0.0 0.0 0.00 0.00 0.00 1011.0
20260903072725 0 0.0 0.0 0.00 0.00 0.00 1011.0
20260903072223 70 0.0 0.0 0.00 0.00 0.00 95 1010.9
20260903071722 70 0 0.0 0.0 0.00 0.00 0.00 95 1011.1
20260903071123 70 0 0.0 0.0 0.00 0.00 0.00 95 1011.1
20260903070604 70 0 0.0 5.0 0.00 0.00 0.00 95 1011.2
20260903070059 70 0 0.0 5.0 0.00 0.00 0.00 96 1011.2
20260903065558 70 213 1.0 7.0 0.00 0.00 0.00 95 1011.2
20260903065052 70 205 2.0 7.0 0.00 0.00 0.00 95 1011.1
20260903064546 70 209 2.0 8.0 0.00 0.00 0.00 95 1011.1
20260903064040 70 236 2.0 8.0 0.00 0.00 0.00 95 1011.2
20260903063534 70 200 1.0 6.0 0.00 0.00 0.00 95 1011.1
20260903062522 70 228 1.0 6.0 0.00 0.00 0.00 95 1011.2
20260903062016 70 219 2.0 9.0 0.00 0.00 0.00 95 1011.0
20260903061510 70 191 2.0 10.0 0.00 0.00 0.00 95 1011.0
20260903060459 70 155 2.0 7.0 0.00 0.00 0.00 95 1011.2
20260903055952 70 227 3.0 9.0 0.00 0.00 0.00 95 1011.1
20260903054939 70 184 3.0 8.0 0.00 0.00 0.00 95 1010.9
20260903054433 70 209 3.0 9.0 0.00 0.00 0.00 95 1010.8
20260903053926 70 223 4.0 9.0 0.00 0.00 0.00 95 1010.9
20260903053421 70 204 4.0 8.0 0.00 0.00 0.00 95 1010.9
20260903052914 70 215 5.0 8.0 0.00 0.00 0.00 95 1010.9
20260903052408 70 227 4.0 8.0 0.00 0.00 0.00 96 1010.8
20260903051356 70 195 0.0 5.0 0.00 0.00 0.00 95 1010.7
20260903050850 70 213 0.0 5.0 0.00 0.00 0.00 95 1010.8
20260903050346 70 182 0.0 3.0 0.00 0.00 0.00 95 1010.7
20260903045838 70 271 0.0 7.0 0.00 0.00 0.00 95 1010.8
20260903045333 70 220 0.0 7.0 0.00 0.00 0.00 95 1010.7
20260903044320 70 153 3.0 9.0 0.00 0.00 0.00 95 1010.9
20260903043814 70 221 3.0 11.0 0.00 0.00 0.00 96 1010.8
20260903043308 70 205 4.0 11.0 0.00 0.00 0.00 96 1010.9
20260903042803 70 250 5.0 13.0 0.00 0.00 0.00 96 1010.9
20260903042256 70 223 5.0 13.0 0.00 0.00 0.00 96 1010.9
20260903041751 70 210 4.0 11.0 0.00 0.00 0.00 96 1011.0
20260903041244 71 198 4.0 12.0 0.00 0.00 0.00 96 1011.1
20260903040737 71 0 5.0 12.0 0.00 0.00 0.00 96 1011.1
20260903040239 71 188 5.0 15.0 0.00 0.00 0.00 96 1011.0
20260903035739 71 186 6.0 15.0 0.00 0.00 0.00 96 1010.9
20260903035236 71 205 6.0 15.0 0.00 0.00 0.00 96 1010.8
20260903034736 71 258 5.0 15.0 0.00 0.00 0.00 96 1010.8
20260903033735 71 212 5.0 12.0 0.00 0.00 0.00 96 1010.9
20260903033234 71 201 4.0 12.0 0.00 0.00 0.00 96 1010.9
20260903032736 71 182 4.0 9.0 0.00 0.00 0.00 95 1010.9
20260903032234 71 162 4.0 9.0 0.00 0.00 0.00 95 1010.9
20260903031734 71 207 3.0 8.0 0.00 0.00 0.00 95 1011.0
20260903031234 72 156 3.0 9.0 0.00 0.00 0.00 96 1010.9
20260903030234 72 198 0.0 4.0 0.00 0.00 0.00 95 1011.0
20260903025735 72 205 0.0 3.0 0.00 0.00 0.00 95 1011.0
20260903025234 72 247 1.0 7.0 0.00 0.00 0.00 95 1010.9
20260903024733 72 230 1.0 7.0 0.00 0.00 0.00 95 1010.8
20260903024230 72 230 1.0 6.0 0.00 0.00 0.00 95 1010.8
20260903022212 71 350 0.0 0.0 0.00 0.00 0.00 95 1011.1
20260903020654 71 350 0.0 6.0 0.00 0.00 0.00 94 1010.8
20260903020149 71 350 1.0 6.0 0.00 0.00 0.00 94 1010.9
20260903015137 72 153 3.0 11.0 0.00 0.00 0.00 94 1010.9
20260903014630 72 170 3.0 11.0 0.00 0.00 0.00 93 1010.7
20260903014130 72 217 3.0 11.0 0.00 0.00 0.00 93 1010.7
20260903013631 72 182 0.0 6.0 0.00 0.00 0.00 92 1010.4
20260903013131 72 171 1.0 5.0 0.00 0.00 0.00 92 1010.4
20260903012630 72 169 4.0 9.0 0.00 0.00 0.00 92 1010.2
20260903011128 73 192 9.0 18.0 0.00 0.00 0.00 90 1009.9
20260903010628 73 153 9.0 15.0 0.00 0.00 0.00 90 1010.2
20260903005628 73 171 10.0 16.0 0.00 0.00 0.00 90 1010.5
20260903005127 74 169 10.0 16.0 0.00 0.00 0.00 90 1010.6
20260903004627 74 141 9.0 16.0 0.00 0.00 0.00 90 1010.6
20260903004125 74 169 7.0 12.0 0.00 0.00 0.00 90 1010.8
20260903003625 74 162 7.0 11.0 0.00 0.00 0.00 90 1010.9
20260903003125 74 159 9.0 15.0 0.00 0.00 0.00 90 1010.8
20260903002622 74 152 10.0 15.0 0.00 0.00 0.00 89 1010.7
20260903002123 74 165 11.0 16.0 0.00 0.00 0.00 89 1010.7
20260903001622 74 161 11.0 17.0 0.00 0.00 0.00 89 1010.8